Kosmos-2115

operational
NORAD ID: 21029 Int'l Des: 1990-114 Owner: UNKS Country: SU
LEOCIRCULARPOLAR

Kosmos-2115について

説明を読み込み中...

リアルタイム位置

3D地球を読み込み中...

次回通過

高度履歴

Altitude vs Time

uPlot chart will show altitude changes over time

軌道要素

1 21029U 90114B 26063.02355064 .00000039 00000-0 15561-3 0 9994
2 21029 82.5643 279.1099 0004384 82.6920 37.4227 12.63530528623121
Epoch: Mar 4, 2026 • Age: 21 hours

現在のステータス

高度 1419.3 km
速度 7.15 km/s
衛星直下点 -26.87°S, 161.77°E
打ち上げ日 Dec 22, 1990
運用期間 35.1 years
タイプ other

技術仕様

分類 Payload
質量 225.00 kg
乾燥質量 225.00 kg
総質量 225.00 kg
長さ 1.60 m
直径 0.80 m
スパン 7.00 m
形状 Cyl + Ant
製造者 NPOPM
バスタイプ Strela-3
フェーズステータス In Orbit
所有者/国 UNKS/SU

大規模コンステレーション

Loading constellations...